TimeMST,TemperatureF,Dew PointF,Humidity,Sea Level PressureIn,VisibilityMPH,Wind Direction,Wind SpeedMPH,Gust SpeedMPH,PrecipitationIn,Events,Conditions,WindDirDegrees,DateUTC
12:51 AM,54.0,43.0,66,29.90,9.0,WSW,28.8,39.1,0.00,Rain,Light Rain,250,2013-01-27 07:51:00
1:51 AM,52.0,41.0,66,29.89,10.0,WSW,24.2,33.4,0.00,,Mostly Cloudy,240,2013-01-27 08:51:00
2:51 AM,48.9,42.1,77,29.90,10.0,SW,21.9,-,N/A,,Mostly Cloudy,230,2013-01-27 09:51:00
3:51 AM,48.9,42.1,77,29.89,10.0,SW,19.6,-,N/A,,Overcast,230,2013-01-27 10:51:00
4:51 AM,46.9,41.0,80,29.90,10.0,WSW,25.3,-,N/A,,Clear,240,2013-01-27 11:51:00
5:51 AM,45.0,42.1,90,29.92,10.0,SW,17.3,25.3,N/A,,Scattered Clouds,230,2013-01-27 12:51:00
6:51 AM,46.9,39.0,74,29.92,10.0,WSW,23.0,27.6,N/A,,Clear,240,2013-01-27 13:51:00
7:51 AM,46.0,41.0,83,29.94,8.0,WSW,17.3,25.3,N/A,,Scattered Clouds,240,2013-01-27 14:51:00
8:51 AM,54.0,39.0,57,29.91,9.0,WSW,29.9,36.8,N/A,,Scattered Clouds,250,2013-01-27 15:51:00
9:51 AM,55.9,39.9,55,29.93,9.0,WSW,28.8,38.0,N/A,,Clear,240,2013-01-27 16:51:00
10:51 AM,57.0,41.0,55,29.92,9.0,WSW,29.9,38.0,N/A,,Clear,250,2013-01-27 17:51:00
11:51 AM,61.0,39.9,46,29.87,8.0,WSW,42.6,52.9,N/A,,Partly Cloudy,250,2013-01-27 18:51:00
12:51 PM,62.1,37.0,39,29.82,8.0,WSW,41.4,54.1,N/A,,Scattered Clouds,250,2013-01-27 19:51:00
1:51 PM,62.1,36.0,38,29.83,8.0,WSW,47.2,56.4,N/A,,Scattered Clouds,250,2013-01-27 20:51:00
2:51 PM,62.1,35.1,37,29.84,9.0,WSW,36.8,44.9,N/A,,Scattered Clouds,240,2013-01-27 21:51:00
3:51 PM,60.1,34.0,38,29.86,8.0,WSW,28.8,43.7,N/A,,Mostly Cloudy,240,2013-01-27 22:51:00
4:51 PM,57.9,35.1,42,29.87,8.0,WSW,33.4,40.3,N/A,,Clear,250,2013-01-27 23:51:00
5:51 PM,54.0,35.1,49,29.91,10.0,WSW,24.2,-,N/A,,Clear,240,2013-01-28 00:51:00
6:51 PM,54.0,35.1,49,29.91,10.0,WSW,25.3,-,N/A,,Clear,250,2013-01-28 01:51:00
7:51 PM,51.1,35.1,54,29.94,10.0,WSW,20.7,25.3,N/A,,Clear,250,2013-01-28 02:51:00
8:51 PM,54.0,36.0,51,29.90,10.0,WSW,18.4,27.6,N/A,,Clear,240,2013-01-28 03:51:00
9:51 PM,53.1,36.0,52,29.89,10.0,WSW,18.4,-,N/A,,Clear,240,2013-01-28 04:51:00
10:51 PM,48.9,36.0,61,29.92,10.0,SW,16.1,-,N/A,,Clear,230,2013-01-28 05:51:00
11:51 PM,48.9,36.0,61,29.90,10.0,SW,13.8,-,N/A,,Clear,220,2013-01-28 06:51:00